Wind_Speed
50 49 47 46 46 45 44 45 45 44 44 43 41 39 38 37 36 36 36 35 34 35 36 37 37 36 36 36 36 36 35 35 34 33 31 29 29 29 30 33 37 39
49 48 47 46 45 45 47 49 48 46 46 46 44 43 42 41 40 39 38 35 33 32 33 34 35 36 35 36 37 37 36 36 35 33 31 30 30 30 30 30 33 36
51 49 47 44 41 41 46 50 51 50 50 49 47 46 46 46 45 43 40 38 35 34 33 34 34 35 35 36 37 38 37 36 35 33 31 30 30 30 31 31 32 33
54 50 46 43 40 40 43 47 51 53 52 51 50 49 49 50 49 48 45 42 41 39 38 37 37 37 36 37 38 39 39 38 36 34 32 31 31 31 31 31 31 32
55 51 47 44 44 46 48 49 51 54 53 53 52 51 51 52 52 51 50 48 46 46 45 43 42 42 41 41 40 40 41 40 38 35 33 33 33 33 32 31 31 32
54 51 49 48 48 50 50 50 51 53 54 56 58 56 55 55 55 54 53 53 51 50 50 47 45 45 45 44 44 43 42 41 40 37 35 35 35 35 34 32 31 31
60 56 52 49 49 49 49 49 50 51 52 56 59 59 59 60 59 58 57 57 56 54 54 52 49 48 46 45 45 44 43 42 41 39 38 38 37 37 36 34 33 32
67 65 61 56 52 50 47 47 50 50 51 54 56 57 60 61 62 62 60 59 59 59 57 56 53 50 48 47 46 46 45 44 44 42 41 41 40 39 39 37 35 34
71 68 67 66 64 61 58 56 56 54 53 55 56 56 58 60 61 63 62 61 61 61 60 58 55 53 51 50 49 48 48 47 46 45 44 44 43 42 42 42 40 38
78 74 72 72 72 73 72 71 68 63 60 59 59 58 57 59 62 63 62 61 62 64 63 59 57 55 53 52 52 51 51 50 49 48 47 47 47 45 45 46 44 42
85 84 83 81 80 80 80 80 78 75 72 68 66 66 65 64 65 65 64 63 65 68 66 62 59 58 56 55 54 54 53 52 51 50 50 50 49 48 48 48 46 45
87 88 89 89 88 86 85 84 83 81 79 75 72 71 71 72 72 71 69 68 69 71 70 66 63 62 59 58 56 55 54 53 52 52 52 52 52 50 50 50 49 47
85 87 88 89 89 88 87 86 84 83 81 79 76 73 73 73 73 73 72 71 71 71 71 68 66 64 63 61 59 58 56 55 54 53 53 53 53 51 51 52 51 49
81 83 84 85 86 86 86 86 85 83 81 80 79 77 76 75 75 74 73 71 71 71 71 70 68 67 66 65 63 60 58 57 56 55 53 54 55 54 53 53 53 52
75 78 80 82 83 84 85 86 86 85 84 83 81 80 79 78 77 77 76 75 74 74 73 72 70 69 68 68 65 62 60 58 57 55 54 55 56 57 56 56 56 55
63 68 72 74 76 78 81 83 85 86 86 86 84 82 80 79 78 77 77 77 77 77 76 73 72 71 70 69 67 64 62 60 59 57 58 58 59 59 59 59 58 56
52 56 61 64 67 69 71 74 78 81 84 85 85 84 82 81 80 78 77 77 77 78 78 76 75 74 72 71 69 67 65 63 62 62 62 62 62 61 60 60 59 56
46 47 50 54 58 61 63 66 69 72 76 79 81 82 82 82 82 81 80 79 78 78 79 79 79 78 77 75 74 72 69 67 65 65 65 64 63 62 61 60 58 57
47 46 46 47 50 53 57 60 63 66 69 71 74 76 78 79 80 81 81 81 80 79 79 80 81 81 80 79 78 77 75 72 69 68 67 65 64 63 62 61 59 58
48 47 47 47 47 48 50 53 56 60 63 67 69 71 72 74 75 76 76 77 78 78 77 78 79 81 81 80 80 80 79 76 74 72 70 68 66 66 65 63 61 60
50 49 49 48 48 48 48 49 50 52 55 59 63 67 70 71 72 71 71 71 72 73 74 75 75 76 77 77 79 80 80 78 75 73 71 70 68 68 67 65 64 62
52 51 50 50 49 49 49 49 49 50 51 52 55 59 64 69 72 73 71 68 67 67 69 71 71 70 70 71 75 78 78 76 74 72 71 70 69 68 68 66 65 64
54 53 52 51 51 50 49 49 49 49 50 51 52 53 56 61 68 73 73 70 66 64 63 64 65 65 66 67 69 73 74 73 71 70 70 70 69 69 68 67 66 66
55 54 54 53 52 51 50 50 49 49 49 50 51 51 51 54 60 68 71 70 68 65 62 61 61 61 61 62 64 66 68 69 68 67 67 67 68 68 68 67 67 67
55 56 55 54 53 52 51 50 50 49 49 49 49 49 49 50 54 60 66 68 69 67 63 61 60 59 58 58 60 62 64 66 65 64 64 64 64 66 66 66 66 66
56 56 55 54 53 52 52 51 50 49 48 48 48 48 48 48 50 55 60 65 67 67 65 62 60 59 58 58 59 61 63 65 64 63 63 63 63 64 65 65 66 66
Wind_Direction
253 257 260 263 267 271 274 275 278 278 276 275 276 275 271 268 266 266 266 265 266 269 273 273 271 269 270 270 270 271 273 276 276 275 275 280 282 277 269 260 256 252
252 257 259 260 263 269 273 275 276 276 274 273 272 271 271 270 269 267 267 266 266 271 277 278 274 270 268 268 268 269 271 273 275 274 274 280 284 283 279 270 262 256
250 254 259 260 262 268 271 269 267 267 268 269 269 269 271 272 272 269 267 265 264 268 275 279 279 275 271 268 268 269 271 272 273 274 274 278 284 285 283 278 271 263
249 253 256 255 252 253 257 258 259 261 264 266 267 268 270 273 273 272 270 268 266 267 270 274 277 278 276 274 271 270 271 272 272 273 274 277 282 285 285 282 277 272
251 252 252 249 245 243 245 250 256 261 263 266 266 267 268 269 270 271 270 270 269 269 270 271 272 275 276 277 276 273 271 272 272 273 274 277 280 284 285 282 279 277
248 248 247 247 246 244 245 250 257 261 262 263 264 265 265 265 266 268 268 268 268 269 270 270 271 273 274 275 277 275 272 271 271 273 275 277 279 282 283 282 280 278
244 244 244 246 247 248 249 252 257 261 261 261 262 263 263 263 264 265 265 267 267 267 267 268 269 270 271 272 274 273 272 271 271 273 276 278 279 281 282 282 281 280
245 243 242 242 244 247 250 252 255 258 258 259 261 263 264 264 265 264 263 264 265 264 265 267 268 267 267 268 270 271 271 272 272 273 276 278 278 279 281 282 281 280
246 245 243 243 244 245 247 249 251 253 254 256 260 264 265 264 263 263 262 263 264 264 263 265 267 267 265 265 266 268 270 271 271 271 274 276 277 277 279 281 282 281
245 245 245 246 247 248 249 249 250 251 252 255 258 259 260 261 260 261 262 263 265 266 265 265 266 266 265 264 264 265 267 269 269 270 272 273 274 276 277 279 281 282
245 246 247 248 249 250 251 252 252 251 252 254 257 257 257 259 259 260 261 263 265 266 267 267 267 266 265 264 264 264 265 266 266 268 269 270 271 274 275 276 279 281
245 246 247 249 250 251 251 252 252 253 253 254 255 256 258 259 260 260 261 263 264 266 267 267 266 266 266 265 264 263 263 264 264 265 267 269 270 272 273 274 275 278
246 247 247 248 250 251 251 251 251 252 253 254 254 254 255 256 258 260 261 262 262 263 265 266 266 266 265 264 263 262 262 263 263 264 265 267 269 270 270 271 273 274
249 248 248 249 249 250 251 251 251 251 252 254 255 255 254 254 255 256 258 260 261 262 263 264 266 266 265 265 264 263 263 262 262 263 264 265 267 268 268 269 270 272
248 248 249 249 249 250 251 251 250 251 251 252 254 255 256 256 255 254 255 256 258 261 262 263 263 264 264 264 264 263 262 262 262 262 263 263 264 266 267 267 269 271
248 248 248 248 248 249 250 250 250 250 250 251 252 254 255 257 256 256 255 254 255 256 259 260 261 261 261 262 263 262 262 261 262 262 262 262 263 264 265 266 267 270
250 249 248 248 248 248 248 249 249 249 250 250 251 252 254 255 256 256 256 255 254 254 254 255 257 258 260 261 262 262 262 262 262 262 263 263 264 264 265 266 268 269
253 252 251 250 249 249 249 249 249 249 250 250 251 252 253 254 256 256 256 256 255 255 254 254 254 255 256 259 261 262 262 262 262 262 263 264 264 264 264 265 267 269
253 253 253 252 252 251 250 250 250 251 251 251 252 253 254 254 255 256 257 257 257 257 257 256 256 255 255 256 259 260 261 262 262 262 262 262 262 263 263 264 265 266
252 252 252 252 252 252 252 252 251 251 252 252 253 253 254 255 256 256 257 258 258 258 258 258 258 258 257 257 257 258 259 260 260 261 261 260 260 260 261 262 263 264
251 251 252 252 252 252 252 253 253 253 253 253 253 252 252 253 255 256 256 257 258 258 258 258 258 259 259 259 257 257 257 257 258 259 260 260 259 259 260 261 261 263
249 250 251 251 251 252 252 253 253 254 254 255 255 253 251 251 252 254 255 255 257 258 259 259 259 259 259 258 258 258 257 257 256 257 257 258 258 259 260 260 261 262
249 249 250 251 252 252 252 252 253 254 255 256 257 257 254 251 249 251 252 253 255 257 258 259 260 260 258 257 257 258 259 259 258 257 256 256 256 257 259 260 261 262
249 249 249 250 251 252 252 252 253 254 255 256 258 259 259 253 249 249 250 251 253 255 256 258 259 260 259 258 257 258 259 260 260 260 259 258 258 259 259 260 262 262
250 250 249 250 251 252 253 253 254 254 255 256 257 259 259 257 252 249 248 250 253 255 257 258 259 260 259 258 257 257 258 259 261 261 262 263 263 264 265 265 266 267
252 251 251 251 251 252 253 254 254 254 255 256 257 258 258 257 254 250 249 249 252 255 257 259 260 261 260 258 257 256 257 258 259 260 261 262 263 265 266 267 268 270
Height
10606 10608 10609 10607 10606 10607 10607 10607 10606 10606 10605 10605 10606 10606 10607 10608 10609 10609 10609 10610 10610 10609 10609 10609 10610 10611 10611 10611 10612 10612 10612 10612 10611 10611 10611 10610 10610 10609 10609 10608 10608 10609
10603 10605 10606 10606 10606 10606 10604 10602 10601 10599 10598 10599 10600 10600 10601 10602 10604 10604 10605 10605 10606 10606 10605 10604 10604 10606 10606 10607 10607 10607 10608 10608 10607 10607 10607 10607 10606 10606 10605 10605 10605 10605
10596 10600 10603 10605 10607 10605 10600 10595 10591 10590 10590 10592 10593 10594 10595 10596 10597 10598 10599 10600 10601 10602 10601 10600 10600 10600 10601 10602 10602 10603 10603 10603 10603 10603 10603 10603 10602 10602 10602 10602 10601 10601
10590 10595 10598 10598 10598 10596 10591 10585 10582 10583 10584 10586 10588 10588 10589 10589 10590 10592 10593 10594 10595 10596 10597 10596 10596 10596 10596 10597 10598 10598 10598 10599 10599 10599 10599 10599 10599 10598 10598 10598 10598 10597
10585 10588 10587 10585 10584 10582 10582 10581 10580 10579 10581 10583 10582 10583 10583 10583 10583 10585 10586 10587 10589 10590 10591 10591 10591 10591 10591 10592 10593 10594 10594 10594 10594 10595 10595 10595 10595 10595 10594 10594 10594 10594
10578 10577 10575 10575 10575 10575 10577 10580 10578 10578 10579 10578 10576 10577 10577 10576 10577 10578 10579 10580 10582 10583 10584 10585 10586 10586 10586 10586 10587 10588 10589 10589 10590 10590 10591 10591 10591 10591 10591 10591 10591 10590
10569 10568 10568 10570 10570 10571 10574 10575 10573 10574 10575 10572 10570 10571 10571 10569 10570 10571 10571 10572 10573 10576 10577 10578 10580 10581 10581 10581 10582 10582 10584 10584 10585 10585 10586 10586 10586 10586 10586 10586 10587 10586
10557 10559 10561 10563 10564 10567 10570 10569 10567 10567 10567 10564 10564 10565 10564 10563 10562 10562 10564 10565 10565 10567 10569 10571 10574 10575 10576 10576 10576 10576 10578 10579 10580 10580 10581 10581 10581 10581 10581 10581 10582 10582
10546 10549 10551 10553 10555 10559 10561 10560 10558 10558 10559 10558 10558 10558 10557 10556 10554 10554 10556 10557 10557 10558 10561 10564 10566 10568 10570 10570 10570 10571 10572 10573 10574 10575 10575 10575 10575 10576 10576 10576 10577 10577
10536 10538 10540 10542 10544 10547 10549 10549 10550 10551 10552 10552 10551 10551 10550 10547 10546 10546 10548 10551 10551 10549 10552 10557 10559 10561 10563 10564 10564 10565 10566 10567 10568 10568 10569 10569 10569 10570 10570 10570 10571 10571
10525 10527 10529 10531 10533 10535 10537 10539 10540 10542 10544 10545 10544 10544 10543 10540 10539 10540 10542 10544 10544 10541 10544 10549 10551 10552 10555 10556 10557 10558 10559 10560 10561 10562 10562 10562 10563 10563 10563 10564 10565 10565
10515 10516 10518 10520 10522 10524 10526 10529 10530 10532 10535 10536 10536 10537 10536 10533 10532 10533 10535 10537 10536 10534 10536 10540 10542 10544 10546 10548 10550 10551 10552 10553 10554 10554 10555 10555 10556 10557 10557 10557 10558 10559
10505 10506 10507 10509 10510 10512 10515 10518 10519 10522 10525 10526 10527 10529 10528 10526 10525 10526 10528 10529 10529 10528 10529 10531 10533 10535 10537 10539 10541 10544 10545 10546 10547 10548 10548 10548 10549 10550 10551 10550 10551 10553
10493 10495 10497 10498 10500 10502 10504 10506 10509 10513 10516 10517 10517 10518 10519 10519 10520 10520 10520 10522 10521 10521 10522 10524 10525 10526 10527 10529 10533 10536 10538 10539 10540 10541 10542 10542 10541 10543 10544 10544 10544 10546
10481 10483 10485 10488 10490 10492 10493 10495 10498 10501 10504 10506 10507 10508 10508 10510 10512 10513 10514 10516 10515 10513 10514 10516 10517 10518 10518 10519 10523 10528 10530 10531 10533 10534 10535 10536 10535 10535 10537 10537 10538 10539
10471 10473 10475 10477 10480 10482 10483 10485 10487 10490 10492 10494 10497 10498 10498 10499 10501 10503 10504 10507 10508 10508 10508 10509 10509 10509 10509 10510 10513 10518 10521 10523 10525 10526 10527 10528 10528 10529 10530 10530 10531 10532
10463 10465 10466 10468 10470 10472 10474 10475 10477 10479 10481 10483 10486 10488 10489 10489 10491 10493 10494 10496 10498 10500 10502 10502 10502 10501 10501 10502 10504 10508 10511 10514 10516 10517 10518 10519 10520 10521 10522 10522 10523 10525
10457 10458 10459 10460 10462 10463 10465 10467 10468 10469 10471 10473 10475 10477 10479 10480 10480 10482 10484 10485 10487 10490 10492 10494 10494 10494 10495 10495 10496 10498 10501 10504 10506 10508 10509 10510 10511 10513 10514 10515 10516 10517
10450 10451 10452 10453 10454 10455 10457 10459 10460 10461 10462 10464 10466 10467 10468 10470 10471 10472 10473 10475 10477 10479 10482 10482 10483 10484 10487 10488 10488 10489 10491 10494 10496 10498 10500 10502 10503 10503 10505 10507 10508 10509
10443 10444 10445 10446 10448 10449 10450 10451 10452 10453 10454 10455 10457 10458 10459 10460 10462 10463 10464 10465 10467 10469 10471 10471 10472 10473 10476 10478 10479 10480 10482 10484 10486 10489 10491 10493 10494 10495 10496 10498 10500 10501
10436 10437 10438 10439 10441 10442 10443 10444 10445 10447 10447 10448 10448 10450 10451 10452 10453 10454 10455 10456 10458 10459 10460 10461 10462 10463 10465 10466 10468 10469 10471 10474 10477 10479 10481 10483 10485 10486 10487 10490 10492 10493
10429 10430 10431 10432 10433 10435 10436 10437 10438 10439 10440 10440 10441 10442 10443 10444 10445 10445 10446 10448 10450 10451 10451 10451 10453 10455 10455 10455 10455 10457 10460 10464 10469 10471 10472 10474 10475 10476 10478 10481 10483 10484
10422 10423 10424 10425 10426 10427 10429 10430 10431 10432 10432 10433 10433 10434 10435 10436 10436 10436 10437 10439 10442 10443 10443 10443 10444 10445 10446 10446 10447 10448 10450 10453 10458 10462 10464 10465 10467 10468 10470 10473 10475 10476
10415 10416 10416 10417 10418 10419 10421 10422 10423 10424 10425 10425 10426 10426 10426 10427 10427 10428 10429 10431 10433 10435 10436 10436 10435 10436 10437 10439 10440 10441 10442 10444 10448 10452 10454 10456 10458 10460 10462 10465 10467 10468
10407 10408 10408 10410 10412 10413 10414 10415 10416 10417 10417 10418 10418 10418 10418 10419 10419 10420 10421 10423 10424 10426 10428 10429 10428 10429 10430 10432 10433 10434 10435 10437 10440 10443 10445 10447 10448 10449 10452 10455 10456 10458
10398 10399 10401 10404 10406 10406 10407 10408 10409 10409 10410 10410 10411 10411 10411 10412 10412 10413 10414 10416 10417 10418 10419 10421 10421 10422 10424 10425 10426 10427 10428 10429 10432 10435 10437 10439 10440 10441 10442 10445 10446 10447